[[{"header":{"parameterUnit":"m.s-1","parameterCategory":1,"la1":30.2992,"la2":30.254,"lo1":-89.0895,"lo2":-89.0443,"dy":0.0025,"dx":0.0025,"nx":19,"ny":19,"refTime":"2026-03-11T09:00:00:Z","depth":0,"parameterNumber":2,"parameterNumberName":"U-component_of_WINDS"},"data":[0,0,0,-2.9079,-2.9081,-2.9133,-2.9133,-2.9197,-2.9198,0,0,0,0,0,0,0,0,0,0,0,-2.9064,-2.9064,-2.9079,-2.9081,-2.9133,-2.9133,-2.9197,-2.9198,0,0,0,0,0,0,0,0,0,0,0,-2.9064,-2.9064,-2.9065,-2.9081,-2.9133,-2.9133,-2.9197,-2.9158,0,0,0,0,0,0,0,0,0,0,-2.9108,-2.9094,-2.9064,-2.9065,-2.9081,-2.9133,-2.9133,-2.9156,-2.9161,-2.9173,0,-2.9185,0,-2.9193,-2.9202,-2.9202,0,0,0,-2.908,-2.909,-2.9105,-2.9065,-2.9082,-2.9133,-2.9109,-2.9159,-2.9164,-2.9179,-2.9186,-2.9189,-2.9194,-2.9202,-2.9203,-2.9278,-2.9278,0,0,-2.9077,-2.9073,-2.9101,-2.9108,-2.9101,-2.9108,-2.9111,-2.9162,-2.9169,-2.9186,-2.919,-2.9195,-2.9203,-2.9203,-2.9277,-2.9278,0,0,0,-2.9069,-2.9071,-2.9084,-2.9105,-2.9115,-2.9109,-2.9113,-2.9167,-2.9172,-2.9191,-2.9196,-2.9203,-2.9204,-2.9277,-2.9277,-2.929,0,0,0,-2.9068,-2.9066,-2.9083,-2.9081,-2.9114,-2.9142,-2.9117,-2.9168,-2.9174,-2.9195,-2.9203,-2.9205,-2.9277,-2.9277,-2.9289,-2.9297,0,0,0,-2.906,-2.9065,-2.9073,-2.908,-2.9103,-2.9141,-2.9149,-2.9169,-2.9177,-2.9202,-2.9205,-2.9276,-2.9277,-2.9288,-2.9295,-2.9314,0,0,0,-2.9051,-2.9084,-2.9073,-2.9112,-2.9102,-2.915,-2.9148,-2.9184,-2.9207,-2.9204,-2.9277,-2.9277,-2.9288,-2.9294,-2.9313,-2.9328,-2.9334,0,0,-2.909,-2.9089,-2.9112,-2.9104,-2.9152,-2.9142,-2.9192,-2.9217,-2.9223,-2.9259,-2.9261,-2.929,-2.9295,-2.9313,-2.9374,-2.9379,0,0,0,-2.9123,-2.9139,-2.9153,-2.9176,-2.9197,-2.9214,-2.9233,-2.9242,-2.9272,-2.9241,-2.9303,-2.9306,-2.9317,-2.9324,-2.9328,-2.9337,-2.9281,-2.9281,-2.9281,-2.9171,-2.9177,-2.9215,-2.9228,-2.925,-2.9268,-2.9286,-2.9301,-2.9302,-2.9316,-2.9326,-2.9362,-2.9371,-2.9374,-2.9383,-2.9336,-2.9336,-2.9336,-2.9336,-2.9227,-2.925,-2.925,-2.9286,-2.9292,-2.9323,-2.9342,-2.9341,-2.9368,-2.9356,-2.9366,-2.9349,-2.9379,-2.9387,-2.9337,-2.9337,-2.9337,-2.9337,-2.9337,-2.9257,-2.9269,-2.9281,-2.9313,-2.9338,-2.9349,-2.9376,-2.9381,-2.9386,-2.9396,-2.9406,-2.9405,-2.9404,-2.9401,-2.9401,-2.9401,-2.9401,-2.9401,-2.9401,-2.9283,-2.9296,-2.9318,-2.9343,-2.9357,-2.9377,-2.9396,-2.941,-2.9427,-2.9428,-2.9428,-2.9425,-2.9382,-2.937,-2.9403,-2.9403,-2.9403,-2.9402,-2.9402,-2.9334,-2.9324,-2.9358,-2.9373,-2.9401,-2.9424,-2.9431,-2.9458,-2.9471,-2.9483,-2.9479,-2.9447,-2.9445,-2.9442,-2.9432,-2.9479,-2.9479,-2.9479,-2.9479,-2.9358,-2.9359,-2.9394,-2.9417,-2.944,-2.9449,-2.9486,-2.9501,-2.9514,-2.9521,-2.9516,-2.9503,-2.95,-2.95,-2.9495,-2.9486,-2.9546,-2.9546,-2.9546,-2.9389,-2.9392,-2.9423,-2.9436,-2.9459,-2.9478,-2.9512,-2.9536,-2.9549,-2.9549,-2.9527,-2.9524,-2.9504,-2.9498,-2.9495,-2.9488,-2.947,0,0]},{"header":{"parameterUnit":"m.s-1","parameterCategory":1,"la1":30.2992,"la2":30.254,"lo1":-89.0895,"lo2":-89.0443,"dy":0.0025,"dx":0.0025,"nx":19,"ny":19,"refTime":"2026-03-11T09:00:00:Z","depth":0,"parameterNumber":3,"parameterNumberName":"V-component_of_WINDS"},"data":[0,0,0,4.7126,4.7129,4.729,4.729,4.7481,4.7482,0,0,0,0,0,0,0,0,0,0,0,4.707,4.7071,4.7126,4.713,4.729,4.7291,4.748,4.7482,0,0,0,0,0,0,0,0,0,0,0,4.707,4.7071,4.7072,4.713,4.729,4.7291,4.748,4.7364,0,0,0,0,0,0,0,0,0,0,4.7211,4.7151,4.7071,4.7072,4.7131,4.7289,4.7291,4.7359,4.7371,4.7402,0,4.7428,0,4.7458,4.7494,4.7495,0,0,0,4.7135,4.7141,4.7192,4.7073,4.7133,4.7289,4.7219,4.7366,4.738,4.7418,4.743,4.7438,4.7461,4.7495,4.7496,4.7658,4.7659,0,0,4.7126,4.7094,4.7182,4.7201,4.7176,4.7214,4.7224,4.7375,4.7385,4.7431,4.7443,4.7464,4.7496,4.7498,4.7658,4.7658,0,0,0,4.7097,4.7088,4.7136,4.7192,4.7222,4.7218,4.723,4.7378,4.7397,4.7445,4.7466,4.7497,4.7499,4.7657,4.7658,4.7653,0,0,0,4.7092,4.7071,4.7131,4.7113,4.7219,4.7303,4.723,4.7386,4.7404,4.7466,4.7497,4.7501,4.7657,4.7658,4.7652,4.7656,0,0,0,4.7063,4.7067,4.7088,4.7111,4.7179,4.7301,4.7328,4.7391,4.7417,4.7495,4.7502,4.7656,4.7657,4.7651,4.7654,4.7691,0,0,0,4.7021,4.7078,4.7087,4.716,4.7177,4.7297,4.7328,4.7417,4.7483,4.7498,4.7657,4.7658,4.7651,4.7654,4.769,4.7717,4.7725,0,0,4.7075,4.7084,4.7129,4.7142,4.7252,4.7275,4.7384,4.7473,4.7509,4.7606,4.7611,4.7652,4.7654,4.7691,4.7779,4.7785,0,0,0,4.7136,4.7168,4.7204,4.7267,4.7338,4.74,4.7476,4.751,4.7595,4.7553,4.7676,4.7678,4.7701,4.7715,4.7721,4.7743,4.7663,4.7663,4.7663,4.7165,4.7211,4.729,4.7355,4.7415,4.7495,4.7548,4.7607,4.7632,4.7661,4.769,4.7739,4.7754,4.7759,4.7782,4.7707,4.7707,4.7707,4.7707,4.7251,4.7305,4.7341,4.7431,4.7478,4.7554,4.7634,4.765,4.7727,4.7719,4.7741,4.773,4.7764,4.7787,4.7707,4.7707,4.7707,4.7707,4.7707,4.7276,4.7311,4.7352,4.745,4.7519,4.7583,4.7657,4.7696,4.7734,4.7756,4.7793,4.7793,4.78,4.7771,4.7771,4.7771,4.7771,4.7771,4.7771,4.7287,4.7335,4.7393,4.7476,4.7523,4.759,4.7673,4.772,4.7782,4.7805,4.7806,4.783,4.7759,4.7741,4.7774,4.7774,4.7773,4.7773,4.7773,4.7359,4.735,4.744,4.7488,4.759,4.7659,4.7709,4.7802,4.7846,4.7882,4.7902,4.7843,4.7853,4.7849,4.7835,4.7891,4.7891,4.7891,4.7891,4.7383,4.7393,4.7496,4.757,4.7646,4.7702,4.7804,4.7869,4.7935,4.7966,4.7963,4.7947,4.7941,4.7956,4.795,4.7937,4.8018,4.8018,4.8018,4.7431,4.7451,4.7529,4.7596,4.768,4.7751,4.7849,4.7932,4.8004,4.8024,4.7991,4.7986,4.7961,4.795,4.7968,4.7958,4.7936,0,0]}]]